Volver al catálogo

STARLINK-11381

ActivoComunicacionesVLEO
NORAD 62094·PAYLOAD·🇺🇸 United States

Lanzado Nov 25, 2024 desde Cape Canaveral Space Force Station

Loading…

Próximos Pases (próximas 24 horas)

TLE

ActualizadoSource: CelesTrak SupGP

Época: Sep 14, 2026, 21:22 UTC

1 62094C 24220G   26257.89076389 -.00029499  00000+0 -22903-3 0  2573
2 62094  43.0004 342.5574 0001758 260.3963 343.9910 15.70861838    11

Sigue STARLINK-11381 en tiempo real con AllMySat

Download on the App Store